Flag for U.S.A. Weather past 2 weeks in Scottsdale, Arizona, U.S.A.

Now
86 °F

Passing clouds.


Feels Like: 88 °F
Forecast: 76 / 90 °F
Wind: 3 mph from Southeast

Location: Scottsdale Airport

Current Time: Sep 18, 2014 at 11:13:25 PM

Latest Report: Sep 18, 2014 at 9:53 PM


Visibility: 10 mi

Pressure: 29.71 "Hg

Humidity: 49%

Dew point: 65 °F

Location of ScottsdaleLocation

Historic Weather in Scottsdale — Graph

°F

Scottsdale temperature yesterday

Maximum temperature yesterday: 88 °F (at 10:53 AM)
Minimum temperature yesterday: 78 °F (at 1:53 PM)
Average temperature yesterday: 83 °F

Past Weeks' High & Low Weather Summary

 TemperatureHumidityPressure
High102 °F (Sep 4, 3:53 PM)100% (Sep 8, 2:57 AM)29.97 "Hg (Sep 8, 2:57 AM)
Low70 °F (Sep 8, 2:57 AM)19% (Sep 12, 3:53 PM)29.57 "Hg (Sep 4, 4:53 PM)
Average87 °F46%29.78 "Hg
* Reported Sep 3 9:53 PM — Sep 18 9:53 PM, Scottsdale, Weather by CustomWeather, © 2014

Note: Actual official high and low records may vary slightly from our data, if they occured in-between our weather recording intervals... More about our weather records

Advertising

Scottsdale weather history for previous 24 hours

 ConditionsComfort  
Time TempWeatherWind HumidityBarometerVisibility
9:53 PM
Sep 18
86 °FPassing clouds.3 mph49%29.71 "Hg10 mi
8:53 PM87 °FPassing clouds.No wind46%29.70 "Hg10 mi
7:53 PM88 °FClear.No wind45%29.68 "Hg10 mi
6:53 PM90 °FClear.5 mph41%29.67 "Hg10 mi
5:53 PM91 °FSunny.No wind37%29.65 "Hg10 mi
4:53 PM92 °FSunny.5 mph37%29.65 "Hg10 mi
3:53 PM92 °FSunny.3 mph37%29.65 "Hg10 mi
2:53 PM93 °FSunny.7 mph36%29.66 "HgN/A
1:53 PM92 °FSunny.5 mph37%29.68 "HgN/A
12:53 PM89 °FSunny.No wind41%29.70 "HgN/A
11:53 AM88 °FSunny.N/A42%29.73 "Hg10 mi
10:53 AM87 °FSunny.5 mph43%29.74 "Hg10 mi
9:53 AM85 °FSunny.7 mph48%29.75 "Hg10 mi
8:53 AM85 °FSunny.6 mph48%29.75 "Hg10 mi
7:53 AM80 °FSunny.No wind58%29.75 "Hg10 mi
6:53 AM76 °FSunny.No wind72%29.74 "Hg10 mi
5:53 AM76 °FClear.No wind69%29.72 "Hg10 mi
4:53 AM80 °FClear.3 mph52%29.70 "Hg10 mi
3:53 AM80 °FClear.5 mph54%29.70 "Hg10 mi
2:53 AM78 °FClear.No wind62%29.70 "Hg10 mi
1:53 AM80 °FClear.3 mph58%29.72 "Hg10 mi
12:53 AM80 °FClear.No wind60%29.72 "Hg10 mi
11:53 PM
Sep 17
81 °FClear.5 mph56%29.71 "Hg10 mi
Weather by CustomWeather, © 2014

See weather overviewHow to use our weather pages